< < Back
Terminal Aerodrome Forecast


Current Version              Previous Versions:   1  2  3  4  5  6  7  8  9  

Terminal Aerodrome Forecast

209
FTUS42 KCAE 030851 AAB
TAFCAE
TAF AMD
KCAE 030851Z 0309/0406 VRB05KT P6SM -SHRA SCT025 OVC060
     FM031200 VRB05KT P6SM VCSH BKN025
     FM031500 24012G20KT P6SM SCT040
     FM032000 25012G20KT P6SM VCTS BKN050CB=

Latest METAR

016
SAUS80 KWBC 030800 CCA
MTRCAE
METAR KCAE 030756Z 00000KT 10SM SCT047 OVC060 20/18 A2987 RMK AO2 RAE43
TSE45 SLP111 P0011 T02000183


USA.gov is the U.S. government's official web portal to all federal, state and local government web resources and services.